Time,TemperatureF,DewpointF,PressureIn,WindDirection,WindDirectionDegrees,WindSpeedMPH,WindSpeedGustMPH,Humidity,HourlyPrecipIn,Conditions,Clouds,dailyrainin,SoftwareType,DateUTC
2013-08-31 00:01:00,85.3,70.3,29.86,North,0,0.0,0.0,61,0.00,,,0.00,WUHU21623XXSP,2013-08-31 05:01:00,
2013-08-31 00:03:00,85.1,70.2,29.86,North,0,0.0,0.0,61,0.00,,,0.00,WUHU21623XXSP,2013-08-31 05:03:00,
2013-08-31 00:08:00,85.1,70.2,29.86,North,0,0.0,0.0,61,0.00,,,0.00,WUHU21623XXSP,2013-08-31 05:08:00,
2013-08-31 00:13:00,85.1,70.2,29.86,North,0,0.0,0.0,61,0.00,,,0.00,WUHU21623XXSP,2013-08-31 05:13:00,
2013-08-31 00:18:00,84.9,70.0,29.86,North,0,0.0,0.0,61,0.00,,,0.00,WUHU21623XXSP,2013-08-31 05:18:00,
2013-08-31 00:23:00,84.9,70.4,29.87,North,0,0.0,0.0,62,0.00,,,0.00,WUHU21623XXSP,2013-08-31 05:23:00,
2013-08-31 00:28:00,84.9,70.4,29.86,North,0,0.0,0.0,62,0.00,,,0.00,WUHU21623XXSP,2013-08-31 05:28:00,
2013-08-31 00:33:00,84.7,70.3,29.86,North,0,0.0,0.0,62,0.00,,,0.00,WUHU21623XXSP,2013-08-31 05:33:00,
2013-08-31 00:38:00,84.6,70.1,29.86,North,0,0.0,0.0,62,0.00,,,0.00,WUHU21623XXSP,2013-08-31 05:38:00,
2013-08-31 00:43:00,84.6,70.1,29.86,North,0,0.0,0.0,62,0.00,,,0.00,WUHU21623XXSP,2013-08-31 05:43:00,
2013-08-31 00:48:00,84.6,70.1,29.86,North,0,0.0,0.0,62,0.00,,,0.00,WUHU21623XXSP,2013-08-31 05:48:00,
2013-08-31 00:53:00,84.6,70.1,29.86,North,0,0.0,0.0,62,0.00,,,0.00,WUHU21623XXSP,2013-08-31 05:53:00,
2013-08-31 00:58:00,84.4,70.0,29.87,North,0,0.0,0.0,62,0.00,,,0.00,WUHU21623XXSP,2013-08-31 05:58:00,
2013-08-31 01:03:00,84.4,70.0,29.87,North,0,0.0,0.0,62,0.00,,,0.00,WUHU21623XXSP,2013-08-31 06:03:00,
2013-08-31 01:08:00,84.4,70.4,29.87,North,0,0.0,0.0,63,0.00,,,0.00,WUHU21623XXSP,2013-08-31 06:08:00,
2013-08-31 01:13:00,84.4,70.4,29.87,North,0,0.0,0.0,63,0.00,,,0.00,WUHU21623XXSP,2013-08-31 06:13:00,
2013-08-31 01:18:00,84.4,70.4,29.87,North,0,0.0,0.0,63,0.00,,,0.00,WUHU21623XXSP,2013-08-31 06:18:00,
2013-08-31 01:23:00,84.4,70.4,29.87,North,0,0.0,0.0,63,0.00,,,0.00,WUHU21623XXSP,2013-08-31 06:23:00,
2013-08-31 01:28:00,84.2,70.3,29.87,North,0,0.0,0.0,63,0.00,,,0.00,WUHU21623XXSP,2013-08-31 06:28:00,
2013-08-31 01:33:00,84.0,70.3,29.87,North,0,0.0,0.0,63,0.00,,,0.00,WUHU21623XXSP,2013-08-31 06:33:00,
2013-08-31 01:38:00,84.0,70.1,29.87,North,0,0.0,0.0,63,0.00,,,0.00,WUHU21623XXSP,2013-08-31 06:38:00,
2013-08-31 01:43:00,84.0,70.1,29.87,North,0,0.0,0.0,64,0.00,,,0.00,WUHU21623XXSP,2013-08-31 06:43:00,
2013-08-31 01:48:00,84.0,70.5,29.86,North,0,0.0,0.0,64,0.00,,,0.00,WUHU21623XXSP,2013-08-31 06:48:00,
2013-08-31 01:53:00,84.0,70.5,29.86,North,0,0.0,0.0,64,0.00,,,0.00,WUHU21623XXSP,2013-08-31 06:53:00,
2013-08-31 01:58:00,83.8,70.3,29.86,North,0,0.0,0.0,64,0.00,,,0.00,WUHU21623XXSP,2013-08-31 06:58:00,
2013-08-31 02:03:00,83.7,70.2,29.86,North,0,0.0,0.0,64,0.00,,,0.00,WUHU21623XXSP,2013-08-31 07:03:00,
2013-08-31 02:08:00,83.7,70.2,29.87,North,0,0.0,0.0,64,0.00,,,0.00,WUHU21623XXSP,2013-08-31 07:08:00,
2013-08-31 02:13:00,83.7,70.0,29.87,North,0,0.0,0.0,64,0.00,,,0.00,WUHU21623XXSP,2013-08-31 07:13:00,
2013-08-31 02:18:00,83.5,70.0,29.87,North,0,0.0,0.0,64,0.00,,,0.00,WUHU21623XXSP,2013-08-31 07:18:00,
2013-08-31 02:23:00,83.5,70.0,29.86,North,0,0.0,0.0,64,0.00,,,0.00,WUHU21623XXSP,2013-08-31 07:23:00,
2013-08-31 02:28:00,83.5,70.0,29.86,North,0,0.0,0.0,64,0.00,,,0.00,WUHU21623XXSP,2013-08-31 07:28:00,
2013-08-31 02:33:00,83.3,69.8,29.86,North,0,0.0,0.0,64,0.00,,,0.00,WUHU21623XXSP,2013-08-31 07:33:00,
2013-08-31 02:38:00,83.1,70.1,29.86,North,0,0.0,0.0,65,0.00,,,0.00,WUHU21623XXSP,2013-08-31 07:38:00,
2013-08-31 02:43:00,82.9,69.9,29.86,North,0,0.0,0.0,65,0.00,,,0.00,WUHU21623XXSP,2013-08-31 07:43:00,
2013-08-31 02:48:00,82.8,69.7,29.86,North,0,0.0,0.0,65,0.00,,,0.00,WUHU21623XXSP,2013-08-31 07:48:00,
2013-08-31 02:53:00,82.8,70.2,29.86,North,0,0.0,0.0,66,0.00,,,0.00,WUHU21623XXSP,2013-08-31 07:53:00,
2013-08-31 02:58:00,82.6,70.0,29.85,North,0,0.0,0.0,66,0.00,,,0.00,WUHU21623XXSP,2013-08-31 07:58:00,
2013-08-31 03:03:00,82.6,70.0,29.85,North,0,0.0,0.0,66,0.00,,,0.00,WUHU21623XXSP,2013-08-31 08:03:00,
2013-08-31 03:08:00,82.6,70.0,29.85,North,0,0.0,0.0,66,0.00,,,0.00,WUHU21623XXSP,2013-08-31 08:08:00,
2013-08-31 03:13:00,82.6,70.0,29.86,North,0,0.0,0.0,66,0.00,,,0.00,WUHU21623XXSP,2013-08-31 08:13:00,
2013-08-31 03:18:00,82.4,70.3,29.86,North,0,0.0,0.0,67,0.00,,,0.00,WUHU21623XXSP,2013-08-31 08:18:00,
2013-08-31 03:23:00,82.2,70.1,29.86,North,0,0.0,0.0,67,0.00,,,0.00,WUHU21623XXSP,2013-08-31 08:23:00,
2013-08-31 03:28:00,82.2,70.1,29.86,North,0,0.0,0.0,67,0.00,,,0.00,WUHU21623XXSP,2013-08-31 08:28:00,
2013-08-31 03:33:00,82.0,69.9,29.86,North,0,0.0,0.0,67,0.00,,,0.00,WUHU21623XXSP,2013-08-31 08:33:00,
2013-08-31 03:38:00,82.0,70.4,29.86,North,0,0.0,0.0,68,0.00,,,0.00,WUHU21623XXSP,2013-08-31 08:38:00,
2013-08-31 13:07:00,97.5,72.5,29.82,North,0,0.0,0.0,45,0.00,,,0.00,WUHU21623XXSP,2013-08-31 18:07:00,
2013-08-31 13:12:00,97.7,72.7,29.82,North,0,0.0,0.0,45,0.00,,,0.00,WUHU21623XXSP,2013-08-31 18:12:00,
2013-08-31 13:17:00,97.7,71.3,29.82,North,0,0.0,0.0,43,0.00,,,0.00,WUHU21623XXSP,2013-08-31 18:17:00,
2013-08-31 13:22:00,97.7,71.3,29.81,North,0,0.0,0.0,43,0.00,,,0.00,WUHU21623XXSP,2013-08-31 18:22:00,
2013-08-31 13:27:00,97.9,71.5,29.82,North,0,0.0,0.0,43,0.00,,,0.00,WUHU21623XXSP,2013-08-31 18:27:00,
2013-08-31 13:32:00,98.1,71.7,29.81,North,0,0.0,0.0,43,0.00,,,0.00,WUHU21623XXSP,2013-08-31 18:32:00,
2013-08-31 13:37:00,98.1,71.7,29.81,North,0,0.0,0.0,43,0.00,,,0.00,WUHU21623XXSP,2013-08-31 18:37:00,
2013-08-31 13:42:00,98.2,71.8,29.81,North,0,0.0,0.0,43,0.00,,,0.00,WUHU21623XXSP,2013-08-31 18:42:00,
2013-08-31 13:47:00,98.4,72.0,29.80,North,0,0.0,0.0,43,0.00,,,0.00,WUHU21623XXSP,2013-08-31 18:47:00,
2013-08-31 13:52:00,98.8,71.7,29.81,North,0,0.0,0.0,42,0.00,,,0.00,WUHU21623XXSP,2013-08-31 18:52:00,
2013-08-31 13:57:00,98.8,71.7,29.80,North,0,0.0,0.0,42,0.00,,,0.00,WUHU21623XXSP,2013-08-31 18:57:00,
2013-08-31 14:02:00,98.8,72.3,29.80,North,0,0.0,0.0,43,0.00,,,0.00,WUHU21623XXSP,2013-08-31 19:02:00,
2013-08-31 23:12:00,82.6,73.0,29.84,North,0,0.0,0.0,73,0.00,,,0.00,WUHU21623XXSP,2013-09-01 04:12:00,
2013-08-31 23:15:00,82.2,73.0,29.84,North,0,0.0,0.0,74,0.00,,,0.00,WUHU21623XXSP,2013-09-01 04:15:00,
2013-08-31 23:20:00,82.0,72.9,29.84,North,0,0.0,0.0,74,0.00,,,0.00,WUHU21623XXSP,2013-09-01 04:20:00,
2013-08-31 23:22:00,82.0,72.9,29.84,North,0,0.0,0.0,74,0.00,,,0.00,WUHU21623XXSP,2013-09-01 04:22:00,
2013-08-31 23:27:00,81.7,72.6,29.83,North,0,0.0,0.0,74,0.00,,,0.00,WUHU21623XXSP,2013-09-01 04:27:00,
2013-08-31 23:32:00,81.5,72.4,29.84,North,0,0.0,0.0,74,0.00,,,0.00,WUHU21623XXSP,2013-09-01 04:32:00,
2013-08-31 23:40:00,81.3,72.8,29.84,North,0,0.0,0.0,75,0.00,,,0.00,WUHU21623XXSP,2013-09-01 04:40:00,
2013-08-31 23:45:00,81.1,72.5,29.84,North,0,0.0,0.0,75,0.00,,,0.00,WUHU21623XXSP,2013-09-01 04:45:00,
2013-08-31 23:50:00,81.0,72.3,29.84,North,0,0.0,0.0,75,0.00,,,0.00,WUHU21623XXSP,2013-09-01 04:50:00,
2013-08-31 23:52:00,81.0,72.7,29.84,North,0,0.0,0.0,76,0.00,,,0.00,WUHU21623XXSP,2013-09-01 04:52:00,
2013-08-31 23:57:00,80.8,72.9,29.84,North,0,0.0,0.0,77,0.00,,,0.00,WUHU21623XXSP,2013-09-01 04:57:00,